Regional Weather Roundup
Issued by NWS

Home | Current Version | Previous Version | Graphics & Text | Print | Product List | Glossary On
Versions: 1 2 3 4 5 6 7 8 9 10 11 12 13 14 15 16 17 18 19 20 21 22 23 24 25 26 27 28 29 30 31 32 33 34 35 36 37 38 39 40 41 42 43 44 45 46 47 48 49 50
000
ASUS45 KTFX 211519
RWRMT
MONTANA HOURLY WEATHER ROUNDUP
NATIONAL WEATHER SERVICE GREAT FALLS MT
919 AM MDT TUE OCT 21 2014

NOTE: "FAIR" INDICATES FEW OR NO CLOUDS BELOW 12000 FEET WITH NO
SIGNIFICANT WEATHER AND/OR OBSTRUCTIONS TO VISIBILITY.

* THESE STATIONS ARE NOT UNDER NWS QUALITY CONTROL. THEY DO NOT
   REPORT WEATHER SUCH AS PRECIPITATION OR FOG.

MTZ001>007-043-211600-
WEST OF THE DIVIDE
CITY           SKY/WX    TMP DP  RH WIND       PRES   REMARKS
KALISPELL      RAIN      45  43  93 SE7       29.80R
MISSOULA       RAIN      46  46 100 NW6       29.86R VSB 3
BUTTE          PTSUNNY   54  39  57 SW10      29.75F
MULLAN PASS    LGT RAIN  36  36 100 VRB7      29.87R VSB M1/4 WCI  30
* ESSEX        N/A       40  37  89 S2         N/A
* LINCOLN      N/A       36  33  89 NW2        N/A
* POLSON       N/A       46  46 100 SE1G7      N/A
* RONAN APT    CLOUDY    48  46  93 N/A        N/A
* SEELEY LAKE  N/A       44  41  89 E2         N/A
* THOMP F APT  CLOUDY    46  41  83 E6G11      N/A
$$

MTZ008-052>055-211600-
SOUTHWEST MONTANA
CITY           SKY/WX    TMP DP  RH WIND       PRES   REMARKS
BOZEMAN        CLOUDY    50  39  66 S9        29.76R
DILLON         PTSUNNY   57  37  47 SW15      29.72F
W YELLOWSTONE  LGT RAIN  37  37 100 W6        29.91F WCI  32
* THREE FORKS  CLOUDY    61  54  78 S15G24     N/A
* BOULDER HILL N/A       51  32  48 SW12       N/A
* MONIDA PASS  N/A       42  42 100 E10        N/A
* RAYNOLDS PAS N/A       43  29  58 S4G9       N/A
* WHITEHALL    N/A       46  41  83 N9         N/A
* WISE RIVER   N/A       37  34  89 W5         N/A   WCI  33
$$

MTZ009>010-012-014-046-048-049-054-211600-
EAST SLOPES AND CENTRAL MONTANA
CITY           SKY/WX    TMP DP  RH WIND       PRES   REMARKS
GREAT FALLS    LGT RAIN  50  37  61 N3        29.66R
HELENA         CLOUDY    46  36  68 CALM      29.70F
MALMSTROM AFB  LGT RAIN  52  36  55 N2        29.67R
* CONRAD       CLOUDY    54  43  67 S6         N/A
* DEARBORN     N/A       48  38  68 SE1        N/A
* EAST GLACIER N/A       52  36  55 W20        N/A
* MONARCH      N/A       49  32  52 S9         N/A
* PENDROY      N/A       52  34  50 E4         N/A
* ROGERS PASS  N/A       48  33  56 SE7        N/A
* SAINT MARY   N/A       53  36  53 S4G13      N/A
* SWEET GRASS  N/A       54  32  43 NE3        N/A
* WHITE SULPH  N/A       49  35  59 E6G13      N/A
$$

MTZ011-013-016-021-035-040-045-047-050-051-211600-
NORTH CENTRAL MONTANA
CITY           SKY/WX    TMP DP  RH WIND       PRES   REMARKS
HAVRE          PTSUNNY   43  37  79 CALM      29.63S
LEWISTOWN      PTCLDY    55  37  51 E5        29.69F
* CHINOOK      PTCLDY    43  37  79 CALM      29.61F
* FORT BENTON  CLOUDY    46  37  71 W3        29.65S
* CHESTER      N/A       39  30  70 SE3G8      N/A
* DENTON       N/A       56  42  60 S8         N/A
* GEYSER       N/A       61  38  43 VRB8       N/A
* JUDITH GAP   N/A       47  40  77 S4G9       N/A
* LOMA         N/A       45  34  65 W6         N/A
$$

MTZ017>020-022>027-061-062-211600-
NORTHEAST MONTANA
CITY           SKY/WX    TMP DP  RH WIND       PRES   REMARKS
GLASGOW        PTCLDY    50  39  66 E15       29.66S
GLENDIVE       SUNNY     46  41  83 CALM      29.73S
JORDAN         PTCLDY    45  36  71 CALM      29.67F
SIDNEY         SUNNY     48  41  77 CALM      29.74F
WOLF POINT     SUNNY     43  39  86 E6        29.70F
* BEAVER HILL  N/A       50  42  74 SE9        N/A
* CIRCLE       N/A       52  44  74 N/A        N/A
* LINDSAY DVD  N/A       52  44  74 SE2        N/A
* NAVAJO       N/A       47  41  80 S4         N/A
$$

MTZ028>042-056>058-211600-
SOUTHCENTRAL AND SOUTHEAST MONTANA
CITY           SKY/WX    TMP DP  RH WIND       PRES   REMARKS
BAKER          SUNNY     48  43  83 SE7       29.74F
BILLINGS       PTCLDY    54  28  37 SW15      29.73S
LIVINGSTON     CLOUDY    63  37  38 SW16      29.77S
MILES CITY     SUNNY     45  37  74 SE5       29.71S
* LAUREL APT   PTCLDY    52  28  40 N/A        N/A
* ROUNDUP APT  PTCLDY    41  28  60 S6         N/A
* ALZADA       N/A       63  40  43 SE2        N/A
* HYSHAM       N/A       57  29  34 W6         N/A
* LAME DEER    N/A       64  30  28 S4         N/A
* REED POINT   N/A       40  38  93 N/A        N/A
* ROSCOE HILL  N/A       60  26  27 N2G9       N/A
$$

REGIONAL REPORTS...DAKOTAS
CITY           SKY/WX    TMP DP  RH WIND       PRES   REMARKS
WILLISTON      SUNNY     52  39  61 CALM      29.74S
DICKINSON      SUNNY     46  39  77 SE12      29.74F
BEACH          N/A       46  45  96 S8        29.73F
CROSBY         SUNNY     50  37  61 S7        29.74F
TIOGA          SUNNY     50  41  71 SE5       29.78F
BISMARCK       SUNNY     55  39  55 SE9       29.83S
GRAND FORKS    PTCLDY    45  39  80 SE18      30.00F
FARGO          SUNNY     48  39  71 SE15G26   30.02S
BUFFALO SD     SUNNY     54  43  67 S7        29.70F
RAPID CITY     SUNNY     55  43  64 E5        29.84S
$$

REGIONAL REPORTS...WYOMING/IDAHO/WASHINGTON
CITY           SKY/WX    TMP DP  RH WIND       PRES   REMARKS
GILLETTE       SUNNY     66  37  34 SW25G36   29.81S
SHERIDAN       SUNNY     55  36  49 CALM      29.76F
CODY           PTSUNNY  N/A N/A N/A SW14      29.82S
YELLOWSTONE LA PTSUNNY   36  34  92 NW3       30.00S
SALMON         TSTM      48  43  83 S9        29.79R
MULLAN PASS    LGT RAIN  36  36 100 VRB7      29.87S VSB M1/4 WCI  30
SAND POINT     CLOUDY    50  45  83 CALM      29.86R
SPOKANE        PTSUNNY   46  45  96 SW10      29.88R
$$

REGIONAL REPORTS...ALBERTA
CITY           SKY/WX    TMP DP  RH WIND       PRES   REMARKS
CALGARY        PTSUNNY   48  34  59 VRB2      29.64R
LETHBRIDGE     CLOUDY    52  39  61 W8        29.65R
MEDICINE HAT   PTSUNNY   48  41  77 SW7       29.61F
EDMONTON       PTSUNNY   39  36  89 W5        29.63R WCI  35
WATERTON GATE  N/A       52  37  57 SW10       N/A
CARDSTON       N/A       54  39  57 NW8        N/A
MILK RIVER     N/A       54  37  53 NW7        N/A
$$

REGIONAL REPORTS...SASKATCHEWAN
CITY           SKY/WX    TMP DP  RH WIND       PRES   REMARKS
SWIFT CURRENT  PTCLDY    54  41  62 S12       29.61F
MOOSE JAW      SUNNY     43  39  86 SE8       29.65F
REGINA         N/A       45  41  86 SE13      29.69S
VAL MARIE      N/A       45  41  86 NW1        N/A
ASSINIBOIA     N/A       48  41  77 SE7        N/A

$$




USA.gov is the U.S. government's official web portal to all federal, state and local government web resources and services.